Location: Bishopstone
(51.0167°N, 1.9000°W)
Time: 16:53:15
(UTC+00:00)

Cosmos 1025 Rocket - Pass Details

Date: 16 September 2019
Orbit: 593 x 619 km, 82.5° (Epoch: 19 October)

Event Time Altitude Azimuth Distance (km) Brightness Sun altitude
Rises 18:48:56 0° 352° (N) 2,855 6.7 -5.3°
Reaches altitude 10° 18:51:11 10° 355° (N) 1,945 5.8 -5.6°
Maximum altitude 18:55:26 62° 77° (ENE) 676 3.0 -6.3°
Drops below altitude 10° 18:59:39 10° 158° (SSE) 1,925 5.3 -6.9°
Sets 19:01:52 0° 162° (SSE) 2,821 6.1 -7.3°
